Time,TemperatureF,DewpointF,PressureIn,WindDirection,WindDirectionDegrees,WindSpeedMPH,WindSpeedGustMPH,Humidity,HourlyPrecipIn,Conditions,Clouds,dailyrainin,SolarRadiationWatts/m^2,SoftwareType,DateUTC
2013-01-07 00:00:00,40.8,32.1,30.26,NNE,22,0.0,0.0,71,0.00,,,0.00,0,Wunderground v.1.15,2013-01-07 06:00:00,
2013-01-07 00:05:00,40.5,31.8,30.26,NNE,21,0.0,0.0,71,0.00,,,0.00,0,Wunderground v.1.15,2013-01-07 06:05:00,
2013-01-07 00:10:00,40.3,32.0,30.26,NNE,21,0.0,0.0,72,0.00,,,0.00,0,Wunderground v.1.15,2013-01-07 06:10:00,
2013-01-07 00:20:00,39.8,31.8,30.26,NNE,21,0.0,0.0,73,0.00,,,0.00,0,Wunderground v.1.15,2013-01-07 06:20:00,
2013-01-07 00:25:00,39.6,31.7,30.26,NNE,21,0.0,0.0,73,0.00,,,0.00,0,Wunderground v.1.15,2013-01-07 06:25:00,
2013-01-07 00:35:00,39.1,31.5,30.26,NNE,22,0.0,0.0,74,0.00,,,0.00,0,Wunderground v.1.15,2013-01-07 06:35:00,
2013-01-07 00:40:00,38.9,31.3,30.26,NNE,22,0.0,0.0,74,0.00,,,0.00,0,Wunderground v.1.15,2013-01-07 06:40:00,
2013-01-07 00:45:00,38.7,31.5,30.25,NNE,22,0.0,0.0,75,0.00,,,0.00,0,Wunderground v.1.15,2013-01-07 06:45:00,
2013-01-07 00:50:00,38.4,31.5,30.25,NNE,22,0.0,0.0,76,0.00,,,0.00,0,Wunderground v.1.15,2013-01-07 06:50:00,
2013-01-07 00:55:00,38.1,31.2,30.25,NNE,21,0.0,0.0,76,0.00,,,0.00,0,Wunderground v.1.15,2013-01-07 06:55:00,
2013-01-07 01:00:00,37.9,31.3,30.24,NNE,21,0.0,2.0,77,0.00,,,0.00,0,Wunderground v.1.15,2013-01-07 07:00:00,
2013-01-07 01:05:00,37.7,31.5,30.24,NNE,22,1.0,2.0,78,0.00,,,0.00,0,Wunderground v.1.15,2013-01-07 07:05:00,
2013-01-07 01:15:00,37.4,31.2,30.24,NNE,22,0.0,1.0,78,0.00,,,0.00,0,Wunderground v.1.15,2013-01-07 07:15:00,
2013-01-07 01:25:00,37.3,31.4,30.24,NNE,22,0.0,0.0,79,0.00,,,0.00,0,Wunderground v.1.15,2013-01-07 07:25:00,
2013-01-07 01:35:00,37.0,31.1,30.24,NNE,22,0.0,0.0,79,0.00,,,0.00,0,Wunderground v.1.15,2013-01-07 07:35:00,
2013-01-07 01:40:00,36.9,31.0,30.24,NNE,21,0.0,0.0,79,0.00,,,0.00,0,Wunderground v.1.15,2013-01-07 07:40:00,
2013-01-07 01:45:00,36.6,30.4,30.24,NNE,22,0.0,0.0,78,0.00,,,0.00,0,Wunderground v.1.15,2013-01-07 07:45:00,
2013-01-07 01:50:00,36.3,30.1,30.24,NNE,22,0.0,0.0,78,0.00,,,0.00,0,Wunderground v.1.15,2013-01-07 07:50:00,
2013-01-07 02:00:00,35.7,29.5,30.24,NNE,21,0.0,0.0,78,0.00,,,0.00,0,Wunderground v.1.15,2013-01-07 08:00:00,
2013-01-07 02:05:00,35.5,29.3,30.24,NNE,22,0.0,0.0,78,0.00,,,0.00,0,Wunderground v.1.15,2013-01-07 08:05:00,
2013-01-07 02:10:00,35.3,29.4,30.24,NNE,22,0.0,0.0,79,0.00,,,0.00,0,Wunderground v.1.15,2013-01-07 08:10:00,
2013-01-07 02:15:00,35.1,29.2,30.24,NNE,22,0.0,0.0,79,0.00,,,0.00,0,Wunderground v.1.15,2013-01-07 08:15:00,
2013-01-07 02:20:00,34.9,29.4,30.24,NNE,22,0.0,0.0,80,0.00,,,0.00,0,Wunderground v.1.15,2013-01-07 08:20:00,
2013-01-07 02:25:00,34.7,29.2,30.24,NNE,22,0.0,0.0,80,0.00,,,0.00,0,Wunderground v.1.15,2013-01-07 08:25:00,
2013-01-07 02:30:00,34.4,28.9,30.24,NNE,22,0.0,0.0,80,0.00,,,0.00,0,Wunderground v.1.15,2013-01-07 08:30:00,
2013-01-07 02:35:00,34.4,28.9,30.24,NNE,22,0.0,0.0,80,0.00,,,0.00,0,Wunderground v.1.15,2013-01-07 08:35:00,
2013-01-07 02:45:00,34.1,28.9,30.23,NNE,22,0.0,0.0,81,0.00,,,0.00,0,Wunderground v.1.15,2013-01-07 08:45:00,
2013-01-07 02:50:00,34.0,28.8,30.23,NNE,21,0.0,0.0,81,0.00,,,0.00,0,Wunderground v.1.15,2013-01-07 08:50:00,
2013-01-07 02:55:00,33.9,29.0,30.23,NNE,21,0.0,0.0,82,0.00,,,0.00,0,Wunderground v.1.15,2013-01-07 08:55:00,
2013-01-07 03:00:00,33.8,28.9,30.25,NNE,22,0.0,0.0,82,0.00,,,0.00,0,Wunderground v.1.15,2013-01-07 09:00:00,
2013-01-07 03:05:00,33.7,28.8,30.25,NNE,22,0.0,0.0,82,0.00,,,0.00,0,Wunderground v.1.15,2013-01-07 09:05:00,
2013-01-07 03:15:00,33.5,28.9,30.24,NNE,21,0.0,0.0,83,0.00,,,0.00,0,Wunderground v.1.15,2013-01-07 09:15:00,
2013-01-07 03:20:00,33.5,28.9,30.24,NNE,22,0.0,0.0,83,0.00,,,0.00,0,Wunderground v.1.15,2013-01-07 09:20:00,
2013-01-07 03:25:00,33.4,29.1,30.24,NNE,21,0.0,0.0,84,0.00,,,0.00,0,Wunderground v.1.15,2013-01-07 09:25:00,
2013-01-07 03:30:00,33.4,29.1,30.23,NNE,22,0.0,0.0,84,0.00,,,0.00,0,Wunderground v.1.15,2013-01-07 09:30:00,
2013-01-07 03:35:00,33.3,29.3,30.23,NNE,22,0.0,0.0,85,0.00,,,0.00,0,Wunderground v.1.15,2013-01-07 09:35:00,
2013-01-07 03:45:00,33.3,29.6,30.23,NNE,22,0.0,0.0,86,0.00,,,0.00,0,Wunderground v.1.15,2013-01-07 09:45:00,
2013-01-07 03:50:00,33.4,29.7,30.23,NNE,22,0.0,3.0,86,0.00,,,0.00,0,Wunderground v.1.15,2013-01-07 09:50:00,
2013-01-07 04:00:00,33.5,29.8,30.22,NNE,22,2.0,3.0,86,0.00,,,0.00,0,Wunderground v.1.15,2013-01-07 10:00:00,
2013-01-07 04:05:00,33.6,30.1,30.22,NNE,22,2.0,3.0,87,0.00,,,0.00,0,Wunderground v.1.15,2013-01-07 10:05:00,
2013-01-07 04:10:00,33.7,30.2,30.22,NNE,22,2.0,2.0,87,0.00,,,0.00,0,Wunderground v.1.15,2013-01-07 10:10:00,
2013-01-07 04:15:00,33.8,30.3,30.21,NNE,22,2.0,2.0,87,0.00,,,0.00,0,Wunderground v.1.15,2013-01-07 10:15:00,
2013-01-07 04:20:00,33.8,30.3,30.21,NNE,22,2.0,2.0,87,0.00,,,0.00,0,Wunderground v.1.15,2013-01-07 10:20:00,
2013-01-07 04:25:00,33.9,30.4,30.21,NNE,22,2.0,2.0,87,0.00,,,0.00,0,Wunderground v.1.15,2013-01-07 10:25:00,
2013-01-07 04:30:00,34.1,30.6,30.21,NNE,22,1.0,1.0,87,0.00,,,0.00,0,Wunderground v.1.15,2013-01-07 10:30:00,
2013-01-07 04:35:00,34.2,30.7,30.21,NNE,22,1.0,1.0,87,0.00,,,0.00,0,Wunderground v.1.15,2013-01-07 10:35:00,
2013-01-07 04:45:00,34.5,31.0,30.21,NNE,22,0.0,0.0,87,0.00,,,0.00,0,Wunderground v.1.15,2013-01-07 10:45:00,
2013-01-07 04:50:00,34.8,31.3,30.21,NNE,22,1.0,3.0,87,0.00,,,0.00,0,Wunderground v.1.15,2013-01-07 10:50:00,
2013-01-07 04:55:00,35.1,31.3,30.21,NNE,21,2.0,3.0,86,0.00,,,0.00,0,Wunderground v.1.15,2013-01-07 10:55:00,
2013-01-07 05:00:00,35.3,31.5,30.21,NNE,22,2.0,2.0,86,0.00,,,0.00,0,Wunderground v.1.15,2013-01-07 11:00:00,
2013-01-07 05:05:00,35.6,31.8,30.21,NNE,22,1.0,2.0,86,0.00,,,0.00,0,Wunderground v.1.15,2013-01-07 11:05:00,
2013-01-07 05:10:00,35.7,31.6,30.21,NNE,21,0.0,0.0,85,0.00,,,0.00,0,Wunderground v.1.15,2013-01-07 11:10:00,
2013-01-07 05:20:00,35.9,31.5,30.22,NNE,22,0.0,0.0,84,0.00,,,0.00,0,Wunderground v.1.15,2013-01-07 11:20:00,
2013-01-07 05:25:00,35.8,31.1,30.22,NNE,22,0.0,0.0,83,0.00,,,0.00,0,Wunderground v.1.15,2013-01-07 11:25:00,
2013-01-07 05:35:00,35.7,30.7,30.21,NNE,22,0.0,0.0,82,0.00,,,0.00,0,Wunderground v.1.15,2013-01-07 11:35:00,
2013-01-07 05:40:00,35.5,30.5,30.21,NNE,22,0.0,0.0,82,0.00,,,0.00,0,Wunderground v.1.15,2013-01-07 11:40:00,
2013-01-07 05:45:00,35.4,30.5,30.21,NNE,22,0.0,0.0,82,0.00,,,0.00,0,Wunderground v.1.15,2013-01-07 11:45:00,
2013-01-07 05:50:00,35.3,30.4,30.21,NNE,22,0.0,2.0,82,0.00,,,0.00,0,Wunderground v.1.15,2013-01-07 11:50:00,
2013-01-07 06:00:00,35.0,29.8,30.21,NNE,22,0.0,0.0,81,0.00,,,0.00,0,Wunderground v.1.15,2013-01-07 12:00:00,
2013-01-07 06:05:00,34.9,29.7,30.21,NNE,22,0.0,0.0,81,0.00,,,0.00,0,Wunderground v.1.15,2013-01-07 12:05:00,
2013-01-07 06:15:00,34.6,29.7,30.22,NNE,22,0.0,0.0,82,0.00,,,0.00,0,Wunderground v.1.15,2013-01-07 12:15:00,
2013-01-07 06:20:00,34.6,29.7,30.22,NNE,22,0.0,0.0,82,0.00,,,0.00,0,Wunderground v.1.15,2013-01-07 12:20:00,
2013-01-07 06:25:00,34.5,29.9,30.22,NNE,22,0.0,0.0,83,0.00,,,0.00,0,Wunderground v.1.15,2013-01-07 12:25:00,
2013-01-07 06:30:00,34.6,30.0,30.20,NNE,22,1.0,3.0,83,0.00,,,0.00,0,Wunderground v.1.15,2013-01-07 12:30:00,
2013-01-07 06:35:00,34.8,30.2,30.20,NNE,22,2.0,4.0,83,0.00,,,0.00,0,Wunderground v.1.15,2013-01-07 12:35:00,
2013-01-07 06:45:00,35.6,30.9,30.20,NNE,22,3.0,3.0,83,0.00,,,0.00,0,Wunderground v.1.15,2013-01-07 12:45:00,
2013-01-07 06:50:00,35.9,31.2,30.20,NNE,22,2.0,2.0,83,0.00,,,0.00,0,Wunderground v.1.15,2013-01-07 12:50:00,
2013-01-07 06:55:00,36.2,31.2,30.20,NNE,22,2.0,4.0,82,0.00,,,0.00,0,Wunderground v.1.15,2013-01-07 12:55:00,
2013-01-07 07:05:00,36.8,31.2,30.21,NNE,22,2.0,3.0,80,0.00,,,0.00,0,Wunderground v.1.15,2013-01-07 13:05:00,
2013-01-07 07:10:00,37.0,31.1,30.21,NNE,22,1.0,2.0,79,0.00,,,0.00,0,Wunderground v.1.15,2013-01-07 13:10:00,
2013-01-07 07:15:00,37.3,31.1,30.21,NNE,22,2.0,2.0,78,0.00,,,0.00,0,Wunderground v.1.15,2013-01-07 13:15:00,
2013-01-07 07:20:00,37.5,31.3,30.21,NNE,22,3.0,3.0,78,0.00,,,0.00,0,Wunderground v.1.15,2013-01-07 13:20:00,
2013-01-07 07:30:00,37.8,31.2,30.21,NNE,22,3.0,3.0,77,0.00,,,0.00,0,Wunderground v.1.15,2013-01-07 13:30:00,
2013-01-07 07:35:00,38.0,31.1,30.21,NNE,22,3.0,4.0,76,0.00,,,0.00,5,Wunderground v.1.15,2013-01-07 13:35:00,
2013-01-07 07:40:00,38.3,31.1,30.21,NNE,32,4.0,4.0,75,0.00,,,0.00,12,Wunderground v.1.15,2013-01-07 13:40:00,
2013-01-07 07:45:00,38.5,30.9,30.21,NNE,33,4.0,4.0,74,0.00,,,0.00,23,Wunderground v.1.15,2013-01-07 13:45:00,
2013-01-07 07:50:00,38.8,31.2,30.21,NNE,33,4.0,4.0,74,0.00,,,0.00,33,Wunderground v.1.15,2013-01-07 13:50:00,
2013-01-07 07:55:00,39.0,31.1,30.21,NNE,33,4.0,5.0,73,0.00,,,0.00,39,Wunderground v.1.15,2013-01-07 13:55:00,
2013-01-07 08:00:00,39.1,31.2,30.22,NE,34,3.0,5.0,73,0.00,,,0.00,46,Wunderground v.1.15,2013-01-07 14:00:00,
2013-01-07 08:10:00,39.8,31.8,30.22,NE,42,5.0,5.0,73,0.00,,,0.00,63,Wunderground v.1.15,2013-01-07 14:10:00,
2013-01-07 08:15:00,40.2,31.9,30.22,NE,45,5.0,5.0,72,0.00,,,0.00,67,Wunderground v.1.15,2013-01-07 14:15:00,
2013-01-07 08:20:00,40.4,32.1,30.22,NE,45,4.0,5.0,72,0.00,,,0.00,77,Wunderground v.1.15,2013-01-07 14:20:00,
2013-01-07 08:25:00,40.6,32.3,30.22,NE,45,4.0,5.0,72,0.00,,,0.00,49,Wunderground v.1.15,2013-01-07 14:25:00,
2013-01-07 08:35:00,40.9,32.6,30.22,NE,49,4.0,4.0,72,0.00,,,0.00,67,Wunderground v.1.15,2013-01-07 14:35:00,
2013-01-07 08:40:00,41.1,32.4,30.22,NE,45,5.0,5.0,71,0.00,,,0.00,72,Wunderground v.1.15,2013-01-07 14:40:00,
2013-01-07 08:45:00,41.3,32.6,30.22,NE,49,5.0,5.0,71,0.00,,,0.00,77,Wunderground v.1.15,2013-01-07 14:45:00,
2013-01-07 08:55:00,42.0,33.6,30.22,NE,49,4.0,9.0,72,0.00,,,0.00,146,Wunderground v.1.15,2013-01-07 14:55:00,
2013-01-07 09:00:00,42.6,34.5,30.23,NE,49,4.0,4.0,73,0.00,,,0.00,325,Wunderground v.1.15,2013-01-07 15:00:00,
2013-01-07 09:05:00,43.4,34.6,30.23,NE,49,5.0,6.0,71,0.00,,,0.00,202,Wunderground v.1.15,2013-01-07 15:05:00,
2013-01-07 09:15:00,44.1,34.9,30.23,NE,46,4.0,5.0,70,0.00,,,0.00,209,Wunderground v.1.15,2013-01-07 15:15:00,
2013-01-07 09:20:00,44.5,35.3,30.23,NE,40,4.0,4.0,70,0.00,,,0.00,141,Wunderground v.1.15,2013-01-07 15:20:00,
2013-01-07 09:25:00,44.7,35.5,30.23,NE,49,5.0,5.0,70,0.00,,,0.00,141,Wunderground v.1.15,2013-01-07 15:25:00,
2013-01-07 09:30:00,44.6,35.4,30.23,NE,41,5.0,5.0,70,0.00,,,0.00,125,Wunderground v.1.15,2013-01-07 15:30:00,
2013-01-07 09:35:00,44.7,35.9,30.23,NE,41,5.0,5.0,71,0.00,,,0.00,125,Wunderground v.1.15,2013-01-07 15:35:00,
2013-01-07 09:40:00,44.7,35.9,30.23,NE,49,4.0,6.0,71,0.00,,,0.00,162,Wunderground v.1.15,2013-01-07 15:40:00,
2013-01-07 09:45:00,45.3,36.8,30.23,NE,49,4.0,6.0,72,0.00,,,0.00,332,Wunderground v.1.15,2013-01-07 15:45:00,
2013-01-07 09:50:00,45.6,36.0,30.23,NE,51,4.0,6.0,69,0.00,,,0.00,209,Wunderground v.1.15,2013-01-07 15:50:00,
2013-01-07 09:55:00,45.6,36.4,30.23,NE,53,5.0,6.0,70,0.00,,,0.00,204,Wunderground v.1.15,2013-01-07 15:55:00,
2013-01-07 10:05:00,46.3,37.4,30.23,ENE,58,5.0,9.0,71,0.00,,,0.00,383,Wunderground v.1.15,2013-01-07 16:05:00,
2013-01-07 10:10:00,46.6,37.7,30.23,NE,55,5.0,5.0,71,0.00,,,0.00,420,Wunderground v.1.15,2013-01-07 16:10:00,
2013-01-07 10:15:00,46.9,37.6,30.24,ENE,68,5.0,5.0,70,0.00,,,0.00,295,Wunderground v.1.15,2013-01-07 16:15:00,
2013-01-07 10:20:00,47.3,38.4,30.24,NE,56,5.0,7.0,71,0.00,,,0.00,457,Wunderground v.1.15,2013-01-07 16:20:00,
2013-01-07 10:25:00,47.4,38.1,30.24,ENE,72,5.0,7.0,70,0.00,,,0.00,396,Wunderground v.1.15,2013-01-07 16:25:00,
2013-01-07 10:30:00,47.7,38.8,30.22,ENE,78,6.0,6.0,71,0.00,,,0.00,294,Wunderground v.1.15,2013-01-07 16:30:00,
2013-01-07 10:35:00,47.6,38.7,30.22,ENE,63,6.0,6.0,71,0.00,,,0.00,271,Wunderground v.1.15,2013-01-07 16:35:00,
2013-01-07 10:40:00,47.8,38.8,30.22,NE,56,5.0,5.0,71,0.00,,,0.00,271,Wunderground v.1.15,2013-01-07 16:40:00,
2013-01-07 10:50:00,48.2,40.3,30.23,ENE,67,4.0,4.0,74,0.00,,,0.00,221,Wunderground v.1.15,2013-01-07 16:50:00,
2013-01-07 10:55:00,48.5,39.5,30.23,ENE,72,3.0,4.0,71,0.00,,,0.00,236,Wunderground v.1.15,2013-01-07 16:55:00,
2013-01-07 11:00:00,48.6,39.6,30.22,East,82,3.0,3.0,71,0.00,,,0.00,267,Wunderground v.1.15,2013-01-07 17:00:00,
2013-01-07 11:05:00,48.8,39.4,30.22,East,81,4.0,4.0,70,0.00,,,0.00,373,Wunderground v.1.15,2013-01-07 17:05:00,
2013-01-07 11:10:00,49.3,39.6,30.22,ENE,59,3.0,9.0,69,0.00,,,0.00,301,Wunderground v.1.15,2013-01-07 17:10:00,
2013-01-07 11:20:00,50.2,40.0,30.21,NE,49,5.0,10.0,68,0.00,,,0.00,399,Wunderground v.1.15,2013-01-07 17:20:00,
2013-01-07 11:30:00,50.7,39.7,30.20,ENE,72,5.0,7.0,66,0.00,,,0.00,373,Wunderground v.1.15,2013-01-07 17:30:00,
2013-01-07 11:35:00,50.4,39.5,30.20,East,91,5.0,7.0,66,0.00,,,0.00,360,Wunderground v.1.15,2013-01-07 17:35:00,
2013-01-07 11:40:00,50.6,39.7,30.20,ENE,63,5.0,5.0,66,0.00,,,0.00,392,Wunderground v.1.15,2013-01-07 17:40:00,
2013-01-07 11:50:00,50.8,39.5,30.19,ENE,59,5.0,9.0,65,0.00,,,0.00,475,Wunderground v.1.15,2013-01-07 17:50:00,
2013-01-07 11:55:00,51.1,39.7,30.19,ENE,76,5.0,9.0,65,0.00,,,0.00,429,Wunderground v.1.15,2013-01-07 17:55:00,
2013-01-07 12:00:00,51.2,39.8,30.17,NE,49,6.0,12.0,65,0.00,,,0.00,464,Wunderground v.1.15,2013-01-07 18:00:00,
2013-01-07 12:05:00,51.7,39.9,30.17,East,88,5.0,12.0,64,0.00,,,0.00,494,Wunderground v.1.15,2013-01-07 18:05:00,
2013-01-07 12:15:00,52.4,39.8,30.17,East,101,4.0,5.0,62,0.00,,,0.00,415,Wunderground v.1.15,2013-01-07 18:15:00,
2013-01-07 12:20:00,52.3,40.1,30.17,NE,53,4.0,5.0,63,0.00,,,0.00,517,Wunderground v.1.15,2013-01-07 18:20:00,
2013-01-07 12:25:00,52.9,40.6,30.17,ESE,103,3.0,5.0,63,0.00,,,0.00,578,Wunderground v.1.15,2013-01-07 18:25:00,
2013-01-07 12:30:00,53.3,40.2,30.15,East,84,4.0,4.0,61,0.00,,,0.00,585,Wunderground v.1.15,2013-01-07 18:30:00,
2013-01-07 12:40:00,53.5,39.1,30.15,ESE,103,4.0,4.0,58,0.00,,,0.00,450,Wunderground v.1.15,2013-01-07 18:40:00,
2013-01-07 12:45:00,53.6,39.6,30.14,ESE,102,4.0,4.0,59,0.00,,,0.00,563,Wunderground v.1.15,2013-01-07 18:45:00,
2013-01-07 12:50:00,53.5,39.5,30.14,ENE,74,3.0,5.0,59,0.00,,,0.00,555,Wunderground v.1.15,2013-01-07 18:50:00,
2013-01-07 12:55:00,53.8,40.2,30.14,ESE,116,3.0,5.0,60,0.00,,,0.00,438,Wunderground v.1.15,2013-01-07 18:55:00,
2013-01-07 13:00:00,54.0,40.0,30.12,ESE,111,3.0,7.0,59,0.00,,,0.00,327,Wunderground v.1.15,2013-01-07 19:00:00,
2013-01-07 13:05:00,53.9,39.9,30.12,ESE,112,3.0,7.0,59,0.00,,,0.00,462,Wunderground v.1.15,2013-01-07 19:05:00,
2013-01-07 13:15:00,53.7,39.7,30.11,ENE,74,3.0,3.0,59,0.00,,,0.00,450,Wunderground v.1.15,2013-01-07 19:15:00,
2013-01-07 13:20:00,54.2,40.2,30.11,NE,39,3.0,3.0,59,0.00,,,0.00,485,Wunderground v.1.15,2013-01-07 19:20:00,
2013-01-07 13:25:00,54.6,40.1,30.11,East,85,3.0,3.0,58,0.00,,,0.00,469,Wunderground v.1.15,2013-01-07 19:25:00,
2013-01-07 13:35:00,54.4,40.4,30.09,East,99,4.0,5.0,59,0.00,,,0.00,446,Wunderground v.1.15,2013-01-07 19:35:00,
2013-01-07 13:40:00,54.6,40.1,30.09,ESE,102,3.0,3.0,58,0.00,,,0.00,394,Wunderground v.1.15,2013-01-07 19:40:00,
2013-01-07 13:45:00,54.9,40.4,30.09,East,96,1.0,3.0,58,0.00,,,0.00,330,Wunderground v.1.15,2013-01-07 19:45:00,
2013-01-07 13:50:00,54.3,39.8,30.09,East,96,2.0,2.0,58,0.00,,,0.00,227,Wunderground v.1.15,2013-01-07 19:50:00,
2013-01-07 14:00:00,54.3,39.8,30.07,ENE,74,4.0,5.0,58,0.00,,,0.00,295,Wunderground v.1.15,2013-01-07 20:00:00,
2013-01-07 14:05:00,54.3,40.3,30.07,ENE,73,4.0,5.0,59,0.00,,,0.00,299,Wunderground v.1.15,2013-01-07 20:05:00,
2013-01-07 14:10:00,55.1,40.6,30.07,NE,55,4.0,5.0,58,0.00,,,0.00,336,Wunderground v.1.15,2013-01-07 20:10:00,
2013-01-07 14:15:00,54.9,39.9,30.06,ENE,71,5.0,5.0,57,0.00,,,0.00,278,Wunderground v.1.15,2013-01-07 20:15:00,
2013-01-07 14:20:00,54.9,39.9,30.06,ENE,65,4.0,6.0,57,0.00,,,0.00,329,Wunderground v.1.15,2013-01-07 20:20:00,
2013-01-07 14:25:00,54.7,40.2,30.06,NE,44,5.0,6.0,58,0.00,,,0.00,288,Wunderground v.1.15,2013-01-07 20:25:00,
2013-01-07 14:30:00,55.0,40.0,30.07,NE,45,5.0,5.0,57,0.00,,,0.00,241,Wunderground v.1.15,2013-01-07 20:30:00,
2013-01-07 14:35:00,55.0,40.5,30.07,NE,56,3.0,5.0,58,0.00,,,0.00,213,Wunderground v.1.15,2013-01-07 20:35:00,
2013-01-07 14:40:00,54.9,40.4,30.07,NE,45,4.0,5.0,58,0.00,,,0.00,227,Wunderground v.1.15,2013-01-07 20:40:00,
2013-01-07 14:45:00,55.0,40.5,30.06,ENE,74,5.0,5.0,58,0.00,,,0.00,269,Wunderground v.1.15,2013-01-07 20:45:00,
2013-01-07 14:50:00,55.8,40.3,30.06,ESE,102,4.0,4.0,56,0.00,,,0.00,390,Wunderground v.1.15,2013-01-07 20:50:00,
2013-01-07 14:55:00,56.8,40.8,30.06,East,101,3.0,5.0,55,0.00,,,0.00,332,Wunderground v.1.15,2013-01-07 20:55:00,
2013-01-07 15:00:00,57.1,40.6,30.06,ESE,103,3.0,3.0,54,0.00,,,0.00,483,Wunderground v.1.15,2013-01-07 21:00:00,
2013-01-07 15:05:00,57.3,40.8,30.06,ENE,62,4.0,6.0,54,0.00,,,0.00,343,Wunderground v.1.15,2013-01-07 21:05:00,
2013-01-07 15:10:00,56.6,40.6,30.06,ENE,74,5.0,5.0,55,0.00,,,0.00,436,Wunderground v.1.15,2013-01-07 21:10:00,
2013-01-07 15:15:00,56.5,40.5,30.06,East,87,6.0,6.0,55,0.00,,,0.00,292,Wunderground v.1.15,2013-01-07 21:15:00,
2013-01-07 15:20:00,56.6,41.1,30.06,East,86,4.0,4.0,56,0.00,,,0.00,236,Wunderground v.1.15,2013-01-07 21:20:00,
2013-01-07 15:25:00,56.4,40.9,30.06,ENE,63,3.0,4.0,56,0.00,,,0.00,172,Wunderground v.1.15,2013-01-07 21:25:00,
2013-01-07 15:30:00,56.5,41.0,30.04,ESE,106,3.0,7.0,56,0.00,,,0.00,183,Wunderground v.1.15,2013-01-07 21:30:00,
2013-01-07 15:40:00,56.3,41.3,30.04,ESE,107,3.0,3.0,57,0.00,,,0.00,172,Wunderground v.1.15,2013-01-07 21:40:00,
2013-01-07 15:45:00,56.2,41.2,30.06,ESE,107,2.0,3.0,57,0.00,,,0.00,134,Wunderground v.1.15,2013-01-07 21:45:00,
2013-01-07 15:50:00,56.3,41.3,30.06,ESE,107,1.0,1.0,57,0.00,,,0.00,109,Wunderground v.1.15,2013-01-07 21:50:00,
2013-01-07 16:00:00,56.4,41.3,30.07,ENE,57,1.0,1.0,57,0.00,,,0.00,84,Wunderground v.1.15,2013-01-07 22:00:00,
2013-01-07 16:05:00,56.4,41.3,30.07,ENE,57,0.0,1.0,57,0.00,,,0.00,97,Wunderground v.1.15,2013-01-07 22:05:00,
2013-01-07 16:10:00,56.4,41.3,30.07,ENE,57,0.0,0.0,57,0.00,,,0.00,98,Wunderground v.1.15,2013-01-07 22:10:00,
2013-01-07 16:20:00,56.7,42.5,30.06,ENE,57,0.0,3.0,59,0.00,,,0.00,88,Wunderground v.1.15,2013-01-07 22:20:00,
2013-01-07 16:25:00,56.7,42.5,30.06,ENE,58,1.0,3.0,59,0.00,,,0.00,98,Wunderground v.1.15,2013-01-07 22:25:00,
2013-01-07 16:30:00,56.6,42.0,30.05,ENE,57,2.0,2.0,58,0.00,,,0.00,95,Wunderground v.1.15,2013-01-07 22:30:00,
2013-01-07 16:35:00,56.5,41.9,30.05,ENE,58,2.0,2.0,58,0.00,,,0.00,83,Wunderground v.1.15,2013-01-07 22:35:00,
2013-01-07 16:40:00,56.6,42.9,30.05,East,98,2.0,2.0,60,0.00,,,0.00,51,Wunderground v.1.15,2013-01-07 22:40:00,
2013-01-07 16:45:00,56.6,42.9,30.06,East,98,2.0,2.0,60,0.00,,,0.00,40,Wunderground v.1.15,2013-01-07 22:45:00,
2013-01-07 16:50:00,56.6,42.9,30.06,East,97,1.0,1.0,60,0.00,,,0.00,39,Wunderground v.1.15,2013-01-07 22:50:00,
2013-01-07 16:55:00,56.7,43.4,30.06,East,97,0.0,1.0,61,0.00,,,0.00,33,Wunderground v.1.15,2013-01-07 22:55:00,
2013-01-07 17:05:00,56.7,43.8,30.05,East,98,0.0,0.0,62,0.00,,,0.00,28,Wunderground v.1.15,2013-01-07 23:05:00,
2013-01-07 17:10:00,56.6,43.7,30.05,East,96,1.0,2.0,62,0.00,,,0.00,21,Wunderground v.1.15,2013-01-07 23:10:00,
2013-01-07 17:15:00,56.6,43.7,30.05,East,96,2.0,2.0,62,0.00,,,0.00,26,Wunderground v.1.15,2013-01-07 23:15:00,
2013-01-07 17:20:00,56.5,44.0,30.05,East,96,2.0,2.0,63,0.00,,,0.00,21,Wunderground v.1.15,2013-01-07 23:20:00,
2013-01-07 17:25:00,56.4,43.5,30.05,East,97,2.0,2.0,62,0.00,,,0.00,19,Wunderground v.1.15,2013-01-07 23:25:00,
2013-01-07 17:30:00,56.3,43.4,30.05,East,96,2.0,3.0,62,0.00,,,0.00,14,Wunderground v.1.15,2013-01-07 23:30:00,
2013-01-07 17:35:00,56.2,43.3,30.05,East,96,2.0,3.0,62,0.00,,,0.00,9,Wunderground v.1.15,2013-01-07 23:35:00,
2013-01-07 17:40:00,56.1,43.7,30.05,East,96,2.0,2.0,63,0.00,,,0.00,5,Wunderground v.1.15,2013-01-07 23:40:00,
2013-01-07 17:45:00,56.0,44.0,30.04,East,96,2.0,2.0,64,0.00,,,0.00,0,Wunderground v.1.15,2013-01-07 23:45:00,
2013-01-07 17:50:00,55.8,43.8,30.04,East,96,2.0,2.0,64,0.00,,,0.00,0,Wunderground v.1.15,2013-01-07 23:50:00,
2013-01-07 17:55:00,55.6,43.6,30.04,East,92,2.0,2.0,64,0.00,,,0.00,0,Wunderground v.1.15,2013-01-07 23:55:00,
2013-01-07 18:00:00,55.3,42.9,30.04,East,84,1.0,3.0,63,0.00,,,0.00,0,Wunderground v.1.15,2013-01-08 00:00:00,
2013-01-07 18:05:00,55.1,42.7,30.04,East,85,1.0,3.0,63,0.00,,,0.00,0,Wunderground v.1.15,2013-01-08 00:05:00,
2013-01-07 18:10:00,54.9,42.5,30.04,East,84,1.0,2.0,63,0.00,,,0.00,0,Wunderground v.1.15,2013-01-08 00:10:00,
2013-01-07 18:15:00,54.6,42.3,30.03,East,79,2.0,2.0,63,0.00,,,0.00,0,Wunderground v.1.15,2013-01-08 00:15:00,
2013-01-07 18:25:00,54.1,42.6,30.03,ENE,68,4.0,4.0,65,0.00,,,0.00,0,Wunderground v.1.15,2013-01-08 00:25:00,
2013-01-07 18:35:00,53.6,42.5,30.02,ENE,71,3.0,6.0,66,0.00,,,0.00,0,Wunderground v.1.15,2013-01-08 00:35:00,
2013-01-07 18:40:00,53.4,42.3,30.02,ENE,69,3.0,5.0,66,0.00,,,0.00,0,Wunderground v.1.15,2013-01-08 00:40:00,
2013-01-07 18:50:00,53.1,42.0,30.03,ENE,70,0.0,0.0,66,0.00,,,0.00,0,Wunderground v.1.15,2013-01-08 00:50:00,
2013-01-07 18:55:00,52.9,42.2,30.03,ENE,70,0.0,0.0,67,0.00,,,0.00,0,Wunderground v.1.15,2013-01-08 00:55:00,
2013-01-07 19:00:00,52.9,42.2,30.04,ENE,70,0.0,0.0,67,0.00,,,0.00,0,Wunderground v.1.15,2013-01-08 01:00:00,
2013-01-07 19:05:00,52.8,42.1,30.04,ENE,70,0.0,0.0,67,0.00,,,0.00,0,Wunderground v.1.15,2013-01-08 01:05:00,
2013-01-07 19:15:00,52.6,42.3,30.05,ENE,70,0.0,0.0,68,0.00,,,0.00,0,Wunderground v.1.15,2013-01-08 01:15:00,
2013-01-07 19:20:00,52.5,42.6,30.05,ENE,69,0.0,0.0,69,0.00,,,0.00,0,Wunderground v.1.15,2013-01-08 01:20:00,
2013-01-07 19:25:00,52.5,42.6,30.05,ENE,70,0.0,0.0,69,0.00,,,0.00,0,Wunderground v.1.15,2013-01-08 01:25:00,
2013-01-07 19:35:00,52.4,42.5,30.04,ENE,69,0.0,0.0,69,0.00,,,0.00,0,Wunderground v.1.15,2013-01-08 01:35:00,
2013-01-07 19:45:00,52.3,42.4,30.03,ENE,69,0.0,0.0,69,0.00,,,0.00,0,Wunderground v.1.15,2013-01-08 01:45:00,
2013-01-07 19:50:00,52.3,42.8,30.03,ENE,70,0.0,0.0,70,0.00,,,0.00,0,Wunderground v.1.15,2013-01-08 01:50:00,
2013-01-07 19:55:00,52.3,42.8,30.03,ENE,70,0.0,0.0,70,0.00,,,0.00,0,Wunderground v.1.15,2013-01-08 01:55:00,
2013-01-07 20:00:00,52.4,42.9,30.04,ENE,70,0.0,0.0,70,0.00,,,0.00,0,Wunderground v.1.15,2013-01-08 02:00:00,
2013-01-07 20:05:00,52.4,42.9,30.04,ENE,70,0.0,0.0,70,0.00,,,0.00,0,Wunderground v.1.15,2013-01-08 02:05:00,
2013-01-07 20:15:00,52.4,43.3,30.04,ENE,69,1.0,3.0,71,0.00,,,0.00,0,Wunderground v.1.15,2013-01-08 02:15:00,
2013-01-07 20:20:00,52.4,43.3,30.04,ENE,69,2.0,2.0,71,0.00,,,0.00,0,Wunderground v.1.15,2013-01-08 02:20:00,
2013-01-07 20:25:00,52.4,43.3,30.04,ENE,69,2.0,2.0,71,0.00,,,0.00,0,Wunderground v.1.15,2013-01-08 02:25:00,
2013-01-07 20:30:00,52.4,43.6,30.04,ENE,70,1.0,1.0,72,0.00,,,0.00,0,Wunderground v.1.15,2013-01-08 02:30:00,
2013-01-07 20:35:00,52.4,43.6,30.04,ENE,70,1.0,1.0,72,0.00,,,0.00,0,Wunderground v.1.15,2013-01-08 02:35:00,
2013-01-07 20:40:00,52.3,43.5,30.04,ENE,70,1.0,1.0,72,0.00,,,0.00,0,Wunderground v.1.15,2013-01-08 02:40:00,
2013-01-07 20:50:00,52.3,43.9,30.04,ENE,69,0.0,0.0,73,0.00,,,0.00,0,Wunderground v.1.15,2013-01-08 02:50:00,
2013-01-07 20:55:00,52.3,43.9,30.04,ENE,69,0.0,4.0,73,0.00,,,0.00,0,Wunderground v.1.15,2013-01-08 02:55:00,
2013-01-07 21:00:00,52.3,43.9,30.04,ENE,69,1.0,1.0,73,0.00,,,0.00,0,Wunderground v.1.15,2013-01-08 03:00:00,
2013-01-07 21:05:00,52.3,43.9,30.04,ENE,70,2.0,2.0,73,0.00,,,0.00,0,Wunderground v.1.15,2013-01-08 03:05:00,
2013-01-07 21:10:00,52.3,44.3,30.04,ENE,70,2.0,2.0,74,0.00,,,0.00,0,Wunderground v.1.15,2013-01-08 03:10:00,
2013-01-07 21:20:00,52.4,44.4,30.02,ENE,70,2.0,3.0,74,0.00,,,0.00,0,Wunderground v.1.15,2013-01-08 03:20:00,
2013-01-07 21:25:00,52.4,44.4,30.02,ENE,70,2.0,3.0,74,0.00,,,0.00,0,Wunderground v.1.15,2013-01-08 03:25:00,
2013-01-07 21:30:00,52.5,44.4,30.02,ENE,70,2.0,2.0,74,0.00,,,0.00,0,Wunderground v.1.15,2013-01-08 03:30:00,
2013-01-07 21:35:00,52.6,44.5,30.02,ENE,69,2.0,5.0,74,0.00,,,0.00,0,Wunderground v.1.15,2013-01-08 03:35:00,
2013-01-07 21:40:00,52.6,44.5,30.02,ENE,70,3.0,3.0,74,0.00,,,0.00,0,Wunderground v.1.15,2013-01-08 03:40:00,
2013-01-07 21:45:00,52.6,44.5,30.01,ENE,70,2.0,5.0,74,0.00,,,0.00,0,Wunderground v.1.15,2013-01-08 03:45:00,
2013-01-07 21:50:00,52.6,44.9,30.01,ENE,70,2.0,2.0,75,0.00,,,0.00,0,Wunderground v.1.15,2013-01-08 03:50:00,
2013-01-07 21:55:00,52.7,45.0,30.01,ENE,69,1.0,2.0,75,0.00,,,0.00,0,Wunderground v.1.15,2013-01-08 03:55:00,
2013-01-07 22:00:00,52.7,45.0,30.01,ENE,69,1.0,1.0,75,0.00,,,0.00,0,Wunderground v.1.15,2013-01-08 04:00:00,
2013-01-07 22:05:00,52.7,45.0,30.01,ENE,70,1.0,3.0,75,0.00,,,0.00,0,Wunderground v.1.15,2013-01-08 04:05:00,
2013-01-07 22:10:00,52.7,45.3,30.01,ENE,69,2.0,4.0,76,0.00,,,0.00,0,Wunderground v.1.15,2013-01-08 04:10:00,
2013-01-07 22:15:00,52.8,45.4,30.01,ENE,71,3.0,5.0,76,0.00,,,0.00,0,Wunderground v.1.15,2013-01-08 04:15:00,
2013-01-07 22:25:00,52.8,45.8,30.01,ENE,72,3.0,3.0,77,0.00,,,0.00,0,Wunderground v.1.15,2013-01-08 04:25:00,
2013-01-07 22:30:00,52.9,45.9,30.00,ENE,74,3.0,4.0,77,0.00,,,0.00,0,Wunderground v.1.15,2013-01-08 04:30:00,
2013-01-07 22:40:00,52.9,46.2,30.00,East,82,4.0,9.0,78,0.00,,,0.00,0,Wunderground v.1.15,2013-01-08 04:40:00,
2013-01-07 22:45:00,52.9,46.2,30.00,ENE,75,4.0,9.0,78,0.00,,,0.00,0,Wunderground v.1.15,2013-01-08 04:45:00,
2013-01-07 22:50:00,52.9,46.6,30.00,ENE,77,5.0,5.0,79,0.00,,,0.00,0,Wunderground v.1.15,2013-01-08 04:50:00,
2013-01-07 22:55:00,52.8,46.8,30.00,ENE,70,4.0,5.0,80,0.00,,,0.00,0,Wunderground v.1.15,2013-01-08 04:55:00,
2013-01-07 23:00:00,52.7,47.0,29.99,ENE,78,4.0,4.0,81,0.00,,,0.00,0,Wunderground v.1.15,2013-01-08 05:00:00,
2013-01-07 23:05:00,52.6,46.9,29.99,East,79,5.0,5.0,81,0.00,,,0.00,0,Wunderground v.1.15,2013-01-08 05:05:00,
2013-01-07 23:15:00,52.4,47.1,29.98,East,79,4.0,5.0,82,0.00,,,0.00,0,Wunderground v.1.15,2013-01-08 05:15:00,
2013-01-07 23:20:00,52.3,47.0,29.98,ENE,76,4.0,7.0,82,0.00,,,0.00,0,Wunderground v.1.15,2013-01-08 05:20:00,
2013-01-07 23:30:00,52.2,46.9,29.98,ENE,76,3.0,4.0,82,0.00,,,0.00,0,Wunderground v.1.15,2013-01-08 05:30:00,
2013-01-07 23:35:00,52.2,47.2,29.98,ENE,69,3.0,4.0,83,0.00,,,0.00,0,Wunderground v.1.15,2013-01-08 05:35:00,
2013-01-07 23:45:00,52.1,47.1,29.98,East,84,5.0,5.0,83,0.00,,,0.00,0,Wunderground v.1.15,2013-01-08 05:45:00,
2013-01-07 23:50:00,52.0,47.3,29.98,East,91,4.0,6.0,84,0.00,,,0.00,0,Wunderground v.1.15,2013-01-08 05:50:00,
2013-01-07 23:55:00,51.9,47.5,29.98,East,80,4.0,6.0,85,0.00,,,0.00,0,Wunderground v.1.15,2013-01-08 05:55:00,